This demonstration page uses our WeatherBlox Daily Observations layout. Learn more.

Left ArrowRight Arrow

44.8408, -93.29828

Hourly Observations for November 2, 2015

Temp ( °F °C ) Dew Point ( °F °C ) Humidity (%) Winds ( mph kmh ) Pressure ( in mb ) Visibility ( mi km ) Precip ( " mm )
12:53 am 00:53 Mostly Cloudy 48 8.9 43 6.1 83 83 Calm 29.78 1008 10 16 0.00 0.00
1:53 am 01:53 Mostly Cloudy 48 8.9 44 6.7 86 86 Calm 29.77 1008 10 16 0.00 0.00
2:53 am 02:53 Mostly Cloudy 49 9.4 44 6.7 83 83 S 3 6 29.79 1009 10 16 0.00 0.00
3:53 am 03:53 Mostly Cloudy 46 7.8 43 6.1 89 89 Calm 29.78 1009 10 16 0.00 0.00
4:53 am 04:53 Mostly Cloudy 46 7.8 44 6.7 93 93 NW 5 7 29.79 1009 10 16 0.00 0.00
5:53 am 05:53 Mostly Cloudy 48 8.9 44 6.7 86 86 VRB 3 6 29.80 1009 9 14 0.00 0.00
6:53 am 06:53 Mostly Cloudy 46 7.8 44 6.7 93 93 SSE 6 9 29.82 1010 8 13 0.00 0.00
7:53 am 07:53 Mostly Cloudy 49 9.4 46 7.8 90 90 ESE 6 9 29.80 1009 8 13 0.00 0.00
8:53 am 08:53 Mostly Cloudy 54 12.2 46 7.8 75 75 SE 7 11 29.80 1009 8 13 0.00 0.00
9:53 am 09:53 Mostly Cloudy 58 14.4 46 7.8 65 65 ESE 6 9 29.83 1010 8 13 0.00 0.00
10:53 am 10:53 Mostly Cloudy 62 16.7 47 8.3 58 58 SE 10 17 29.80 1009 10 16 0.00 0.00
11:53 am 11:53 Mostly Cloudy 67 19.4 45 7.2 45 45 VRB 3 6 29.81 1010 10 16 0.00 0.00
12:53 pm 12:53 Partly Cloudy 68 20 46 7.8 45 45 VRB 5 7 29.80 1009 10 16 0.00 0.00
1:53 pm 13:53 Mostly Cloudy 68 20 45 7.2 44 44 SSE 6 9 29.80 1009 10 16 0.00 0.00
2:53 pm 14:53 Mostly Sunny 68 20 46 7.8 45 45 SE 6 9 29.80 1009 10 16 0.00 0.00
3:53 pm 15:53 Partly Cloudy 67 19.4 48 8.9 51 51 S 6 9 29.82 1010 10 16 0.00 0.00
4:53 pm 16:53 Mostly Sunny 64 17.8 47 8.3 54 54 Calm 29.86 1011 9 14 0.00 0.00
5:53 pm 17:53 Partly Cloudy 62 16.7 48 8.9 60 60 E 5 7 29.87 1012 10 16 0.00 0.00
6:53 pm 18:53 Partly Cloudy 58 14.4 48 8.9 70 70 ESE 7 11 29.88 1012 10 16 0.00 0.00
7:53 pm 19:53 Partly Cloudy 59 15 48 8.9 67 67 VRB 3 6 29.90 1012 10 16 0.00 0.00
8:53 pm 20:53 Partly Cloudy 56 13.3 48 8.9 75 75 Calm 29.91 1013 10 16 0.00 0.00
9:53 pm 21:53 Mostly Clear 55 12.8 48 8.9 77 77 Calm 29.91 1013 9 14 0.00 0.00
10:53 pm 22:53 Mostly Clear 52 11.1 47 8.3 83 83 Calm 29.90 1013 10 16 0.00 0.00
11:53 pm 23:53 Partly Cloudy 53 11.7 48 8.9 83 83 ESE 3 6 29.91 1013 10 16 0.00 0.00

Powered by AerisWeather